Hourly Data Report for October 21, 2014

All times are specified in Local Standard Time (LST). Add 1 hour to adjust for Daylight Saving Time where and when it is observed.

MONCTON INTL A
NEW BRUNSWICK

46°06'44.000" N
64°40'43.000" W
70.70 m
8103201
71705
YQM

Download Data

Hourly Data (October 2014)
Hourly Data Report for October 21, 2014
Temp Definition
°C
Dew Point Temp Definition
°C
Rel Hum Definition
%
Wind Dir Definition
10's deg

Wind Spd Definition
km/h
Visibility Definition
km
Stn Press Definition
kPa
Hmdx Definition


Wind Chill Definition


Weather Definition


TIME
00:00 Legend Double Dagger 0.9 -2.0 81 22 17 24.1 100.57     LegendNANA
01:00 Legend Double Dagger 0.6 -2.3 81 24 14 24.1 100.61     LegendNANA
02:00 Legend Double Dagger 0.4 -2.2 83 22 14 24.1 100.66     Mostly Cloudy
03:00 Legend Double Dagger 0.9 -2.7 77 26 14 24.1 100.69     LegendNANA
04:00 Legend Double Dagger -0.1 -2.8 82 24 13 24.1 100.77   -4 LegendNANA
05:00 Legend Double Dagger -0.3 -2.8 83 24 12 24.1 100.85   -4 Clear
06:00 Legend Double Dagger -1.0 -3.1 86 21 13 24.1 100.92   -5 LegendNANA
07:00 Legend Double Dagger -0.5 -2.9 84 25 11 24.1 101.00   -4 LegendNANA
08:00 Legend Double Dagger 1.7 -1.9 77 24 14 24.1 101.06     Mainly Clear
09:00 Legend Double Dagger 2.9 -0.9 76 21 13 24.1 101.15     LegendNANA
10:00 Legend Double Dagger 4.2 -0.8 70 23 9 24.1 101.18     LegendNANA
11:00 Legend Double Dagger 7.0 -0.7 58 22 11 24.1 101.20     Mainly Clear
12:00 Legend Double Dagger 8.8 0.0 54 21 10 24.1 101.17     LegendNANA
13:00 Legend Double Dagger 9.6 -1.7 45 22 7 24.1 101.20     LegendNANA
14:00 Legend Double Dagger 11.2 -0.9 43 26 18 24.1 101.20     Mostly Cloudy
15:00 Legend Double Dagger 10.9 -0.8 44 22 13 24.1 101.24     LegendNANA
16:00 Legend Double Dagger 10.2 0.3 50 22 11 24.1 101.29     LegendNANA
17:00 Legend Double Dagger 9.8 1.2 55 27 4 24.1 101.33     Cloudy
18:00 Legend Double Dagger 9.5 0.2 52 36 2 24.1 101.41     LegendNANA
19:00 Legend Double Dagger 6.0 1.5 73 4 7 24.1 101.41     LegendNANA
20:00 Legend Double Dagger 5.6 1.7 76 8 8 24.1 101.48     Cloudy
21:00 Legend Double Dagger 5.8 2.5 79 9 9 24.1 101.55     LegendNANA
22:00 Legend Double Dagger 5.0 2.4 83 7 5 24.1 101.62     LegendNANA
23:00 Legend Double Dagger 4.9 2.3 83 5 7 24.1 101.64     Cloudy

Notes on Data Quality.

Legend

  • E = Estimated
  • M = Missing
  • NA = Not Available
  • ‡ = Partner data that is not subject to review by the National Climate Archives
Date modified: